NOAA 16 DEB, 41126

Orbit data source: Space-Track

NOAA 16 DEB, 41126 is space debris in SSO originally from a launch on Thu, 21 Sep 2000 UTC launched from the Air Force Western Test Range (AFWTR). Debris objects in space refer to the collection of defunct objects orbiting the Earth. Examples of debris include non-operational satellites, rocket bodies, and fragments generated from explosions, collisions, or faulty payload assembly.

Loading next visibility...
Identifier
41126, 2000-055BH
Orbit
SSO
Country
Flag of USUS
Related business
Manufacturer
Unknown
Mission
Spacecraft
Bus & Motor
Unknown
Mass
Unknown
Launch date (UTC)
2000-09-21 (26 years ago)
Launch vehicle
Unknown
Launch site
Air Force Western Test Range (AFWTR)
Object type
Payload
Rocket body
Debris
Shape & HBR
Unknown shape, 0.1 m
Radar Cross Section
Medium (>0.1 m² and <1 m²)

Expand to show TLE details & history
Last TLE update: 18 hours ago

TLE from 18 hours ago
0 NOAA 16 DEB
1 41126U 00055BH  26254.21600703  .00001803  00000-0  94579-3 0  9991
2 41126  98.7706 255.3541 0067114 109.6805 251.1625 14.14282617551498
Epoch: 2026-09-11T05:11Z
TLE epoch observation values (Epoch: 2026-09-11T05:11:03.007Z)
Latitude
-0.00008°
Longitude
-172.65097°
Altitude
863.604 km
Speed
7.412 km/s
True Right ascension
17h 01m 24s
True Declination
0° 00' 00"
Sunlit
Object was in daylight at epoch
Visualization orbit readout
Latitude
Unknown
Longitude
Unknown
Altitude
Unknown
Speed
Unknown
Apparent Right ascension
Unknown
Apparent Declination
Unknown
Sunlit
N/A
Visualization observer readout
Local Sidereal Time
16:02:04
Azimuth
Unknown
Elevation
Unknown
Doppler factor
Unknown
Orbital elements
Apogee altitude
890.379 km
Perigee altitude
793.466 km
Semi-major axis
7,220.06 km
Eccentricity
0.00671
Inclination
98.7706°
RAAN
255.3541°
Arg. of periapsis
109.6805°
True anomaly
250.43661°
Mean anomaly
251.1625°
Eccentric anomaly
250.79936°
Mean motion
3.53779 °/min
Orbital period
101.76 mins
BSTAR
0.00094579
Loading maneuver chart data...
Computing Atmospheric mass density...
Loading historical data...
Loading historical data...
Loading historical data...
Loading historical data...
Loading historical data...
Loading historical data...
Loading historical data...

Documentation

Showing up to 5 results
|